Tracking 30264 objects as of 16-Feb-2025
HD Live streaming from Space Station
objects crossing your sky now

STARLINK-4056

Track STARLINK-4056 now!
10-day predictions
STARLINK-4056 is classified as:


NORAD ID: 53242
Int'l Code: 2022-086A
Perigee: 545.9 km
Apogee: 547.8 km
Inclination: 53.2 °
Period: 95.4 minutes
Semi major axis: 6917 km
RCS: Unknown
Launch date: July 24, 2022
Source: United States (US)
Launch site: AIR FORCE EASTERN TEST RANGE (AFETR)
Your satellite tracking list
Your tracking list is empty




NASA's NSSDC Master Catalog

Two Line Element Set (TLE):
1 53242U 22086A   25046.53042203  .00002255  00000-0  15969-3 0  9997
2 53242  53.2182 137.1381 0001437 104.5614 255.5537 15.08852284142865
Source of the keplerian elements: AFSPC